VTI319 VAPO-VECC

Flight info

Callsign VTI319
Flight time 1h 58m
Altitude 35000
Route OPAKA2A OPAKA G450 JJS JJS2G
Aircraft B738/M-SDE2E3FGHIRWXY/LB1

Departure

Time 2026-05-04 11:16
Airport Pune International Airport (VAPO)

Arrival

Time 2026-05-04 13:14
Airport Netaji Subhash Chandra Bose International Airport (VECC)
Time Latitude Longitude Altitude Speed Heading
2026-05-04 10:39 18.57975 73.91133 1924 ft 0 kts 189°
2026-05-04 10:57 18.57979 73.91134 1924 ft 2 kts 188°
2026-05-04 10:57 18.57995 73.91136 1925 ft 2 kts 188°
2026-05-04 10:57 18.58012 73.91139 1924 ft 2 kts 188°
2026-05-04 10:57 18.58027 73.91135 1924 ft 2 kts 112°
2026-05-04 10:58 18.58031 73.91118 1924 ft 2 kts 97°
2026-05-04 10:58 18.58032 73.91108 1924 ft 1 kts 97°
2026-05-04 11:01 18.58029 73.91179 1924 ft 7 kts 68°
2026-05-04 11:02 18.58077 73.91206 1924 ft 9 kts 11°
2026-05-04 11:02 18.58107 73.91238 1924 ft 11 kts 72°
2026-05-04 11:05 18.58058 73.93003 1924 ft 0 kts
2026-05-04 11:12 18.58169 73.92953 1924 ft 0 kts 272°
2026-05-04 11:16 18.59087 73.81345 5980 ft 232 kts 294°
2026-05-04 11:16 18.59949 73.79905 6571 ft 235 kts 310°
2026-05-04 11:16 18.61176 73.78767 7176 ft 237 kts 325°
2026-05-04 11:17 18.62708 73.78103 7701 ft 246 kts 345°
2026-05-04 11:17 18.64452 73.78062 8213 ft 255 kts
2026-05-04 11:19 18.70420 73.90542 11010 ft 343 kts 75°
2026-05-04 11:19 18.70973 73.93046 11627 ft 347 kts 75°
2026-05-04 11:19 18.71520 73.95501 12283 ft 350 kts 73°
2026-05-04 11:19 18.72415 73.97878 12958 ft 349 kts 56°
2026-05-04 11:20 18.73913 73.99896 13570 ft 351 kts 46°
2026-05-04 11:20 18.75545 74.01852 14066 ft 358 kts 46°
2026-05-04 11:20 18.77209 74.03856 14573 ft 364 kts 46°
2026-05-04 11:20 18.78874 74.05878 15209 ft 365 kts 46°
2026-05-04 11:22 18.90757 74.20580 19008 ft 388 kts 47°
2026-05-04 11:22 18.92510 74.22764 19476 ft 392 kts 47°
2026-05-04 11:23 18.94278 74.24971 19920 ft 396 kts 47°
2026-05-04 11:23 18.96066 74.27200 20371 ft 399 kts 47°
2026-05-04 11:24 19.07104 74.40989 22968 ft 419 kts 48°
2026-05-04 11:25 19.08994 74.43355 23335 ft 423 kts 47°
2026-05-04 11:25 19.10877 74.45711 23686 ft 425 kts 48°
2026-05-04 11:25 19.12816 74.48137 24022 ft 427 kts 48°
2026-05-04 11:26 19.16645 74.52933 24677 ft 432 kts 48°
2026-05-04 11:27 19.30469 74.70278 26805 ft 449 kts 48°
2026-05-04 11:28 19.32487 74.72815 27091 ft 451 kts 48°
2026-05-04 11:28 19.34507 74.75355 27374 ft 453 kts 48°
2026-05-04 11:28 19.36547 74.77920 27659 ft 455 kts 48°
2026-05-04 11:28 19.38593 74.80496 27916 ft 458 kts 48°
2026-05-04 11:29 19.40648 74.83083 28169 ft 460 kts 48°
2026-05-04 11:29 19.42720 74.85691 28418 ft 463 kts 48°
2026-05-04 11:29 19.44795 74.88306 28674 ft 465 kts 48°
2026-05-04 11:29 19.46880 74.90934 28916 ft 467 kts 48°
2026-05-04 11:31 19.61722 75.09678 30408 ft 481 kts 48°
2026-05-04 11:33 19.76902 75.28912 31696 ft 491 kts 48°
2026-05-04 11:33 19.79096 75.31697 31863 ft 492 kts 48°
2026-05-04 11:33 19.81296 75.34492 32022 ft 494 kts 48°
2026-05-04 11:34 19.83502 75.37293 32210 ft 494 kts 47°
2026-05-04 11:34 19.85583 75.40205 32449 ft 496 kts 55°
2026-05-04 11:34 19.87255 75.43406 32695 ft 497 kts 65°
2026-05-04 11:34 19.88507 75.46832 32963 ft 497 kts 68°
2026-05-04 11:35 19.89708 75.50282 33173 ft 497 kts 68°
2026-05-04 11:35 19.90907 75.53721 33354 ft 498 kts 68°
2026-05-04 11:35 19.92110 75.57132 33583 ft 497 kts 68°
2026-05-04 11:35 19.93350 75.60613 33839 ft 496 kts 67°
2026-05-04 11:36 19.94565 75.63997 34065 ft 495 kts 67°
2026-05-04 11:36 19.95797 75.67415 34279 ft 495 kts 67°
2026-05-04 11:36 19.97034 75.70838 34462 ft 495 kts 67°
2026-05-04 11:36 19.98266 75.74250 34655 ft 495 kts 67°
2026-05-04 11:37 19.99495 75.77656 34800 ft 494 kts 67°
2026-05-04 11:37 20.00730 75.81082 34782 ft 496 kts 67°
2026-05-04 11:37 20.03196 75.87936 34787 ft 495 kts 67°
2026-05-04 11:38 20.05647 75.94759 34796 ft 493 kts 67°
2026-05-04 11:38 20.08095 76.01587 34787 ft 493 kts 68°
2026-05-04 11:39 20.10534 76.08397 34789 ft 492 kts 68°
2026-05-04 11:41 20.19033 76.32200 34780 ft 493 kts 68°
2026-05-04 11:41 20.21468 76.39041 34778 ft 494 kts 68°
2026-05-04 11:42 20.23907 76.45904 34824 ft 498 kts 68°
2026-05-04 11:42 20.25130 76.49349 35035 ft 497 kts 68°
2026-05-04 11:42 20.26351 76.52790 35316 ft 494 kts 68°
2026-05-04 11:42 20.27564 76.56212 35575 ft 493 kts 68°
2026-05-04 11:43 20.28771 76.59622 35753 ft 493 kts 68°
2026-05-04 11:43 20.29980 76.63036 35921 ft 493 kts 68°
2026-05-04 11:43 20.31188 76.66449 36093 ft 493 kts 68°
2026-05-04 11:43 20.32399 76.69875 36280 ft 493 kts 68°
2026-05-04 11:44 20.33603 76.73285 36504 ft 491 kts 68°
2026-05-04 11:44 20.34805 76.76691 36724 ft 490 kts 68°
2026-05-04 11:44 20.36011 76.80107 36750 ft 493 kts 68°
2026-05-04 11:45 20.38365 76.86996 36749 ft 494 kts 70°
2026-05-04 11:45 20.40429 76.93917 36744 ft 491 kts 71°
2026-05-04 11:46 20.42464 77.00861 36758 ft 490 kts 71°
2026-05-04 11:46 20.44180 77.06606 36756 ft 489 kts 71°
2026-05-04 11:47 20.46612 77.14671 36749 ft 488 kts 71°
2026-05-04 11:47 20.48677 77.21522 36743 ft 488 kts 71°
2026-05-04 11:48 20.50414 77.27300 36741 ft 489 kts 71°
2026-05-04 11:48 20.52488 77.34213 36741 ft 490 kts 71°
2026-05-04 11:49 20.54565 77.41145 36736 ft 491 kts 71°
2026-05-04 11:49 20.56754 77.48055 36730 ft 492 kts 69°
2026-05-04 11:50 20.59024 77.54891 36740 ft 493 kts 69°
2026-05-04 11:50 20.61304 77.61817 36734 ft 494 kts 70°
2026-05-04 11:51 20.63566 77.68766 36726 ft 495 kts 70°
2026-05-04 11:51 20.65824 77.75720 36725 ft 496 kts 70°
2026-05-04 11:52 20.68081 77.82679 36734 ft 496 kts 70°
2026-05-04 11:52 20.70352 77.89637 36727 ft 496 kts 70°
2026-05-04 11:53 20.72655 77.96591 36733 ft 496 kts 70°
2026-05-04 11:53 20.74942 78.03501 36734 ft 499 kts 70°
2026-05-04 11:55 20.84293 78.31969 36725 ft 513 kts 70°
2026-05-04 11:56 20.86654 78.39184 36730 ft 514 kts 70°
2026-05-04 11:56 20.89015 78.46416 36730 ft 515 kts 70°
2026-05-04 11:57 20.91371 78.53642 36725 ft 515 kts 70°
2026-05-04 11:57 20.93728 78.60881 36728 ft 515 kts 70°
2026-05-04 11:58 20.96020 78.67933 36720 ft 515 kts 70°
2026-05-04 11:58 20.98397 78.75258 36730 ft 515 kts 70°
2026-05-04 11:59 21.00727 78.82450 36715 ft 515 kts 70°
2026-05-04 11:59 21.03069 78.89691 36723 ft 514 kts 70°
2026-05-04 12:00 21.05405 78.96926 36715 ft 514 kts 70°
2026-05-04 12:00 21.07740 79.04167 36712 ft 514 kts 71°
2026-05-04 12:01 21.09950 79.11446 36719 ft 514 kts 73°
2026-05-04 12:02 21.16924 79.36998 36734 ft 514 kts 73°
2026-05-04 12:03 21.18961 79.44349 36732 ft 514 kts 73°
2026-05-04 12:03 21.20992 79.51694 36739 ft 513 kts 73°
2026-05-04 12:04 21.23016 79.59037 36738 ft 513 kts 73°
2026-05-04 12:04 21.25021 79.66324 36747 ft 513 kts 73°
2026-05-04 12:05 21.27036 79.73664 36755 ft 512 kts 73°
2026-05-04 12:05 21.29046 79.80996 36750 ft 512 kts 73°
2026-05-04 12:06 21.31053 79.88332 36756 ft 512 kts 73°
2026-05-04 12:06 21.33055 79.95664 36751 ft 512 kts 73°
2026-05-04 12:07 21.35055 80.03003 36769 ft 512 kts 73°
2026-05-04 12:07 21.37055 80.10354 36771 ft 512 kts 73°
2026-05-04 12:08 21.39049 80.17696 36768 ft 512 kts 73°
2026-05-04 12:08 21.41025 80.24989 36762 ft 512 kts 74°
2026-05-04 12:09 21.43011 80.32330 36759 ft 512 kts 74°
2026-05-04 12:09 21.44993 80.39672 36769 ft 512 kts 74°
2026-05-04 12:10 21.46973 80.47017 36760 ft 512 kts 74°
2026-05-04 12:10 21.48951 80.54371 36770 ft 512 kts 74°
2026-05-04 12:11 21.50925 80.61722 36772 ft 512 kts 74°
2026-05-04 12:11 21.52884 80.69016 36780 ft 512 kts 74°
2026-05-04 12:12 21.54858 80.76376 36766 ft 512 kts 74°
2026-05-04 12:12 21.56824 80.83723 36778 ft 512 kts 74°
2026-05-04 12:14 21.64647 81.13110 36769 ft 512 kts 74°
2026-05-04 12:15 21.66599 81.20478 36766 ft 512 kts 74°
2026-05-04 12:15 21.68547 81.27843 36764 ft 512 kts 74°
2026-05-04 12:16 21.70517 81.35217 36762 ft 513 kts 74°
2026-05-04 12:16 21.72544 81.42571 36752 ft 513 kts 74°
2026-05-04 12:17 21.74568 81.49934 36760 ft 513 kts 74°
2026-05-04 12:17 21.76564 81.57251 36759 ft 513 kts 74°
2026-05-04 12:18 21.78573 81.64637 36760 ft 513 kts 74°
2026-05-04 12:18 21.80438 81.72051 36777 ft 513 kts 76°
2026-05-04 12:19 21.82233 81.79497 36765 ft 513 kts 76°
2026-05-04 12:19 21.84046 81.86934 36761 ft 514 kts 76°
2026-05-04 12:20 21.85861 81.94326 36759 ft 514 kts 76°
2026-05-04 12:20 21.87679 82.01759 36755 ft 514 kts 76°
2026-05-04 12:21 21.89468 82.09210 36749 ft 514 kts 76°
2026-05-04 12:21 21.91246 82.16675 36756 ft 514 kts 76°
2026-05-04 12:22 21.93022 82.24132 36748 ft 514 kts 76°
2026-05-04 12:22 21.94796 82.31585 36746 ft 514 kts 76°
2026-05-04 12:23 21.96571 82.39055 36752 ft 514 kts 76°
2026-05-04 12:23 21.98338 82.46508 36761 ft 514 kts 76°
2026-05-04 12:24 22.00101 82.53963 36767 ft 514 kts 76°
2026-05-04 12:24 22.01865 82.61433 36764 ft 514 kts 76°
2026-05-04 12:25 22.03611 82.68846 36768 ft 513 kts 76°
2026-05-04 12:25 22.05367 82.76320 36770 ft 513 kts 76°
2026-05-04 12:26 22.07117 82.83780 36784 ft 514 kts 76°
2026-05-04 12:26 22.08863 82.91243 36780 ft 513 kts 76°
2026-05-04 12:27 22.10606 82.98707 36790 ft 513 kts 76°
2026-05-04 12:27 22.12346 83.06180 36794 ft 513 kts 76°
2026-05-04 12:28 22.14082 83.13646 36807 ft 513 kts 76°
2026-05-04 12:28 22.15816 83.21123 36800 ft 514 kts 76°
2026-05-04 12:29 22.17548 83.28605 36811 ft 514 kts 76°
2026-05-04 12:29 22.19265 83.36043 36823 ft 514 kts 76°
2026-05-04 12:30 22.20991 83.43546 36814 ft 514 kts 76°
2026-05-04 12:30 22.22709 83.51035 36825 ft 513 kts 76°
2026-05-04 12:31 22.24426 83.58530 36824 ft 514 kts 76°
2026-05-04 12:31 22.26126 83.65971 36819 ft 514 kts 76°
2026-05-04 12:32 22.28685 83.77206 36830 ft 513 kts 76°
2026-05-04 12:33 22.30387 83.84697 36817 ft 513 kts 76°
2026-05-04 12:33 22.32086 83.92192 36829 ft 513 kts 76°
2026-05-04 12:34 22.33509 83.98407 36824 ft 513 kts 76°
2026-05-04 12:34 22.35245 84.05896 36826 ft 514 kts 76°
2026-05-04 12:35 22.37260 84.14610 36820 ft 514 kts 76°
2026-05-04 12:35 22.38705 84.20892 36827 ft 514 kts 76°
2026-05-04 12:36 22.40425 84.28393 36819 ft 514 kts 76°
2026-05-04 12:36 22.42140 84.35889 36821 ft 513 kts 76°
2026-05-04 12:37 22.43843 84.43345 36825 ft 514 kts 76°
2026-05-04 12:37 22.45551 84.50844 36822 ft 514 kts 76°
2026-05-04 12:38 22.47258 84.58349 36820 ft 514 kts 76°
2026-05-04 12:38 22.48958 84.65848 36813 ft 514 kts 76°
2026-05-04 12:39 22.50662 84.73377 36822 ft 515 kts 76°
2026-05-04 12:39 22.52362 84.80909 36820 ft 515 kts 76°
2026-05-04 12:40 22.54039 84.88453 36826 ft 516 kts 77°
2026-05-04 12:40 22.55667 84.96033 36846 ft 517 kts 77°
2026-05-04 12:41 22.57275 85.03562 36843 ft 518 kts 77°
2026-05-04 12:41 22.58905 85.11169 36863 ft 518 kts 77°
2026-05-04 12:42 22.60536 85.18782 36849 ft 519 kts 77°
2026-05-04 12:42 22.62165 85.26404 36865 ft 520 kts 77°
2026-05-04 12:43 22.63791 85.34031 36856 ft 520 kts 77°
2026-05-04 12:43 22.65405 85.41621 36863 ft 521 kts 77°
2026-05-04 12:44 22.67027 85.49268 36858 ft 521 kts 77°
2026-05-04 12:44 22.68643 85.56905 36866 ft 521 kts 77°
2026-05-04 12:45 22.70260 85.64565 36854 ft 521 kts 77°
2026-05-04 12:45 22.71870 85.72214 36860 ft 521 kts 77°
2026-05-04 12:46 22.73477 85.79864 36851 ft 520 kts 77°
2026-05-04 12:46 22.75079 85.87514 36826 ft 520 kts 77°
2026-05-04 12:47 22.76682 85.95184 36370 ft 527 kts 77°
2026-05-04 12:47 22.77481 85.99014 35813 ft 526 kts 77°
2026-05-04 12:47 22.78287 86.02867 35192 ft 524 kts 77°
2026-05-04 12:47 22.79094 86.06722 34486 ft 524 kts 78°
2026-05-04 12:48 22.79901 86.10580 33684 ft 528 kts 78°
2026-05-04 12:48 22.80714 86.14478 32742 ft 531 kts 78°
2026-05-04 12:48 22.81378 86.18420 31884 ft 530 kts 88°
2026-05-04 12:48 22.81248 86.22400 31111 ft 526 kts 97°
2026-05-04 12:49 22.80939 86.26342 30398 ft 525 kts 97°
2026-05-04 12:49 22.80661 86.30294 29551 ft 525 kts 96°
2026-05-04 12:49 22.80411 86.34251 28566 ft 525 kts 96°
2026-05-04 12:49 22.80186 86.38144 27599 ft 525 kts 95°
2026-05-04 12:50 22.79970 86.42104 26590 ft 525 kts 95°
2026-05-04 12:50 22.79759 86.46057 25675 ft 523 kts 95°
2026-05-04 12:50 22.79554 86.49921 25390 ft 500 kts 95°
2026-05-04 12:50 22.79361 86.53586 25196 ft 475 kts 95°
2026-05-04 12:51 22.79168 86.57147 25092 ft 473 kts 95°
2026-05-04 12:51 22.78970 86.60713 24974 ft 472 kts 95°
2026-05-04 12:51 22.78769 86.64277 24879 ft 476 kts 95°
2026-05-04 12:51 22.78570 86.67796 24825 ft 472 kts 95°
2026-05-04 12:52 22.78371 86.71324 24822 ft 468 kts 95°
2026-05-04 12:52 22.78169 86.74895 24825 ft 470 kts 95°
2026-05-04 12:52 22.77970 86.78383 24819 ft 470 kts 95°
2026-05-04 12:52 22.77769 86.81920 24811 ft 469 kts 95°
2026-05-04 12:53 22.77567 86.85444 24807 ft 469 kts 95°
2026-05-04 12:53 22.77367 86.88943 24337 ft 465 kts 95°
2026-05-04 12:53 22.77167 86.92424 23896 ft 459 kts 95°
2026-05-04 12:53 22.76969 86.95865 23424 ft 455 kts 95°
2026-05-04 12:54 22.76774 86.99246 22881 ft 443 kts 95°
2026-05-04 12:54 22.76584 87.02520 22424 ft 428 kts 95°
2026-05-04 12:54 22.76401 87.05684 21987 ft 414 kts 95°
2026-05-04 12:54 22.76221 87.08757 21580 ft 401 kts 95°
2026-05-04 12:55 22.76046 87.11731 21186 ft 390 kts 95°
2026-05-04 12:55 22.75875 87.14626 20803 ft 379 kts 95°
2026-05-04 12:55 22.75708 87.17440 20436 ft 369 kts 95°
2026-05-04 12:55 22.75545 87.20182 20076 ft 360 kts 95°
2026-05-04 12:56 22.75384 87.22886 19737 ft 359 kts 95°
2026-05-04 12:56 22.75222 87.25583 19381 ft 358 kts 95°
2026-05-04 12:56 22.75062 87.28235 19030 ft 357 kts 95°
2026-05-04 12:56 22.74899 87.30953 18654 ft 357 kts 95°
2026-05-04 12:57 22.74739 87.33599 18298 ft 356 kts 94°
2026-05-04 12:57 22.74577 87.36277 17918 ft 356 kts 94°
2026-05-04 12:57 22.74415 87.38952 17522 ft 355 kts 94°
2026-05-04 12:57 22.74254 87.41618 17141 ft 353 kts 94°
2026-05-04 12:58 22.74092 87.44268 16774 ft 351 kts 94°
2026-05-04 12:58 22.73932 87.46903 16412 ft 349 kts 94°
2026-05-04 12:58 22.73772 87.49517 16055 ft 348 kts 94°
2026-05-04 12:58 22.73612 87.52123 15708 ft 346 kts 94°
2026-05-04 12:59 22.73453 87.54715 15360 ft 344 kts 94°
2026-05-04 12:59 22.73294 87.57292 15014 ft 342 kts 94°
2026-05-04 12:59 22.73134 87.59867 14665 ft 341 kts 94°
2026-05-04 12:59 22.72976 87.62423 14319 ft 340 kts 94°
2026-05-04 13:00 22.72817 87.64973 13976 ft 338 kts 94°
2026-05-04 13:00 22.72660 87.67507 13626 ft 337 kts 94°
2026-05-04 13:00 22.72501 87.70039 13243 ft 336 kts 94°
2026-05-04 13:00 22.72343 87.72564 12876 ft 334 kts 94°
2026-05-04 13:01 22.72186 87.75063 12520 ft 332 kts 94°
2026-05-04 13:01 22.72030 87.77553 12167 ft 330 kts 94°
2026-05-04 13:01 22.71874 87.80024 11834 ft 327 kts 94°
2026-05-04 13:01 22.71719 87.82477 11498 ft 325 kts 94°
2026-05-04 13:02 22.71566 87.84881 11172 ft 323 kts 94°
2026-05-04 13:02 22.71412 87.87307 10842 ft 321 kts 93°
2026-05-04 13:02 22.71259 87.89715 10508 ft 320 kts 93°
2026-05-04 13:02 22.71106 87.92108 10192 ft 318 kts 93°
2026-05-04 13:03 22.70955 87.94458 10073 ft 309 kts 93°
2026-05-04 13:03 22.70808 87.96748 9929 ft 301 kts 93°
2026-05-04 13:03 22.70664 87.98981 9794 ft 293 kts 93°
2026-05-04 13:03 22.70523 88.01184 9499 ft 292 kts 93°
2026-05-04 13:04 22.70382 88.03371 9216 ft 290 kts 93°
2026-05-04 13:04 22.70242 88.05541 8933 ft 288 kts 94°
2026-05-04 13:04 22.70102 88.07697 8660 ft 286 kts 94°
2026-05-04 13:04 22.69968 88.09761 8383 ft 285 kts 94°
2026-05-04 13:05 22.69830 88.11896 8104 ft 284 kts 94°
2026-05-04 13:05 22.69691 88.14023 7835 ft 282 kts 94°
2026-05-04 13:05 22.69554 88.16116 7565 ft 282 kts 94°
2026-05-04 13:05 22.69406 88.18224 7311 ft 280 kts 98°
2026-05-04 13:06 22.68713 88.20122 7283 ft 270 kts 130°
2026-05-04 13:06 22.67199 88.21268 6993 ft 269 kts 165°
2026-05-04 13:06 22.65351 88.21367 6770 ft 266 kts 184°
2026-05-04 13:06 22.63500 88.21455 6467 ft 268 kts 169°
2026-05-04 13:07 22.61702 88.21973 6207 ft 268 kts 160°
2026-05-04 13:07 22.59962 88.22714 5921 ft 269 kts 156°
2026-05-04 13:07 22.58267 88.23567 5639 ft 269 kts 153°
2026-05-04 13:07 22.56618 88.24526 5356 ft 269 kts 149°
2026-05-04 13:08 22.55040 88.25608 5076 ft 269 kts 145°
2026-05-04 13:08 22.53559 88.26834 4798 ft 268 kts 140°
2026-05-04 13:08 22.52184 88.28208 4511 ft 269 kts 135°
2026-05-04 13:08 22.50928 88.29713 4199 ft 269 kts 129°
2026-05-04 13:09 22.49814 88.31310 4136 ft 260 kts 125°
2026-05-04 13:09 22.48868 88.32930 4118 ft 250 kts 120°
2026-05-04 13:09 22.48075 88.34565 4017 ft 242 kts 116°
2026-05-04 13:09 22.47427 88.36196 3927 ft 236 kts 111°
2026-05-04 13:10 22.46897 88.37837 3841 ft 225 kts 109°
2026-05-04 13:10 22.46481 88.39450 3605 ft 218 kts 103°
2026-05-04 13:10 22.46476 88.41034 3347 ft 210 kts 72°
2026-05-04 13:10 22.47312 88.42262 3150 ft 203 kts 36°
2026-05-04 13:11 22.48601 88.42814 2932 ft 200 kts
2026-05-04 13:11 22.49964 88.42902 2726 ft 193 kts
2026-05-04 13:11 22.51272 88.43148 2479 ft 189 kts 11°
2026-05-04 13:11 22.52588 88.43290 2239 ft 191 kts
2026-05-04 13:12 22.53910 88.43422 2012 ft 190 kts
2026-05-04 13:12 22.55226 88.43572 1756 ft 191 kts
2026-05-04 13:12 22.56542 88.43727 1516 ft 189 kts
2026-05-04 13:12 22.57843 88.43881 1269 ft 186 kts
2026-05-04 13:13 22.59094 88.44028 1011 ft 176 kts
2026-05-04 13:13 22.60277 88.44167 832 ft 167 kts
2026-05-04 13:13 22.61387 88.44296 651 ft 150 kts 10°
2026-05-04 13:13 22.62379 88.44409 478 ft 140 kts 10°
2026-05-04 13:14 22.63370 88.44525 239 ft 150 kts
2026-05-04 13:14 22.64346 88.44649 50 ft 135 kts
2026-05-04 13:14 22.65189 88.44756 26 ft 99 kts
2026-05-04 13:14 22.65680 88.44809 30 ft 43 kts
2026-05-04 13:15 22.65934 88.44839 28 ft 33 kts
2026-05-04 13:15 22.66142 88.44862 27 ft 24 kts
2026-05-04 13:15 22.66170 88.44858 27 ft 0 kts 323°
2026-05-04 13:15 22.66171 88.44852 27 ft 2 kts 281°
2026-05-04 13:16 22.66146 88.44824 28 ft 9 kts 225°
2026-05-04 13:16 22.66144 88.44734 28 ft 16 kts 262°
2026-05-04 13:16 22.66042 88.44634 28 ft 25 kts 210°
2026-05-04 13:16 22.65884 88.44529 29 ft 26 kts 212°
2026-05-04 13:17 22.65712 88.44490 28 ft 25 kts 186°
2026-05-04 13:17 22.65549 88.44471 28 ft 23 kts 186°
2026-05-04 13:17 22.65392 88.44453 28 ft 22 kts 186°
2026-05-04 13:17 22.65240 88.44435 27 ft 22 kts 186°
2026-05-04 13:18 22.65175 88.44422 27 ft 7 kts 186°
2026-05-04 13:18 22.65128 88.44421 27 ft 7 kts 180°
2026-05-04 13:18 22.65111 88.44419 27 ft 0 kts 185°